Location: Piotrkow Trybunalski
(51.4000°N, 19.6830°E)
Time: 02:53:49
(UTC+01:00)

Transit 4A - Visible Passes

Search period start: 29 November 2023 00:00
Search period end: 09 December 2023 00:00
Orbit: 864 x 979 km, 66.8° (Epoch: 28 November)

Date Brightness Start Highest point End Pass type
(mag) Time Alt. Az. Time Alt. Az. Time Alt. Az.
29 Nov 9.7 03:04:36 23° NNE 03:04:36 23° NNE 03:08:52 10° ENE visible
29 Nov 8.4 04:48:07 24° NNW 04:51:46 56° NE 04:57:40 10° ESE visible
29 Nov 8.5 06:32:20 10° NW 06:37:57 38° WSW 06:43:23 10° S visible
30 Nov 9.5 03:13:49 27° NNE 03:13:49 27° NNE 03:18:40 10° E visible
30 Nov 8.0 04:57:20 26° NNW 05:00:59 72° NE 05:06:59 10° SE visible
30 Nov 8.9 06:41:47 10° NW 06:46:49 27° WSW 06:51:45 10° SSW visible
01 Dec 9.3 03:23:05 31° NNE 03:23:05 31° NNE 03:28:23 10° E visible
01 Dec 7.8 05:06:36 27° NW 05:10:09 87° SW 05:16:08 10° SE visible
02 Dec 9.0 03:32:25 38° NE 03:32:26 38° NE 03:38:02 10° ESE visible
02 Dec 7.8 05:15:56 28° NW 05:19:14 65° WSW 05:25:06 10° SSE visible
03 Dec 10.7 01:58:17 11° ENE 01:58:17 11° ENE 01:58:32 10° ENE visible
03 Dec 8.6 03:41:49 47° NE 03:41:49 47° NE 03:47:35 10° ESE visible
03 Dec 8.1 05:25:21 28° WNW 05:28:13 48° WSW 05:33:53 10° S visible
04 Dec 10.6 02:07:45 12° ENE 02:07:45 12° ENE 02:08:20 10° ENE visible
04 Dec 8.2 03:51:17 60° NE 03:51:17 60° NE 03:56:59 10° SE visible
04 Dec 8.5 05:34:50 26° WNW 05:37:09 34° WSW 05:42:26 10° S visible
05 Dec 10.5 02:17:18 13° E 02:17:18 13° E 02:18:06 10° E visible
05 Dec 8.0 04:00:51 71° ESE 04:00:51 71° ESE 04:06:15 10° SE visible
05 Dec 8.9 05:44:23 22° W 05:46:00 25° WSW 05:50:40 10° SSW visible
06 Dec 10.4 02:26:56 14° E 02:26:56 14° E 02:27:48 10° E visible
06 Dec 8.1 04:10:29 61° SSE 04:10:29 61° SSE 04:15:21 10° SSE visible
06 Dec 9.2 05:54:03 17° W 05:54:47 17° WSW 05:58:30 10° SW visible
06 Dec 10.2 19:14:33 10° S 19:15:07 13° S 19:15:07 13° S visible
07 Dec 10.4 02:36:40 14° ESE 02:36:40 14° ESE 02:37:25 10° ESE visible
07 Dec 8.5 04:20:13 42° S 04:20:13 42° S 04:24:15 10° SSE visible
07 Dec 9.6 06:03:46 12° WSW 06:03:46 12° WSW 06:05:23 10° WSW visible
07 Dec 9.9 17:41:03 10° SE 17:41:26 11° SE 17:41:26 11° SE visible
07 Dec 9.9 19:23:22 10° SSW 19:25:01 19° SSW 19:25:01 19° SSW visible
08 Dec 10.4 02:46:27 12° ESE 02:46:27 12° ESE 02:46:55 10° ESE visible
08 Dec 9.0 04:30:01 28° SSW 04:30:01 28° SSW 04:32:57 10° S visible
08 Dec 9.5 17:48:34 10° SSE 17:51:16 19° SE 17:51:16 19° SE visible
08 Dec 9.6 19:32:23 10° SW 19:34:49 25° SW 19:34:49 25° SW visible
